Previsão horária em Barnislawice

Hoje, 20 Janeiro, Quarta-feira

Tempo Temperatura Precipitação Vento Pressão Humidade
00:00 0°C° 0.2 mm 4 m/s 747 mmHg 98%
01:00 0°C° 0 mm 4 m/s 747 mmHg 97%
02:00 +1°C° 0.4 mm 4 m/s 747 mmHg 97%
03:00 +1°C° 0.4 mm 5 m/s 747 mmHg 97%
04:00 +2°C° 0.4 mm 5 m/s 747 mmHg 97%
05:00 +2°C° 0.1 mm 5 m/s 747 mmHg 96%
06:00 +2°C° 0.1 mm 5 m/s 747 mmHg 95%
07:00 +2°C° 0 mm 5 m/s 747 mmHg 95%
08:00 +1°C° 0.1 mm 6 m/s 747 mmHg 95%
09:00 +1°C° 0.1 mm 6 m/s 747 mmHg 94%
10:00 +1°C° 0.1 mm 6 m/s 747 mmHg 94%
11:00 +1°C° 0.6 mm 6 m/s 747 mmHg 92%
12:00 +1°C° 0.6 mm 6 m/s 746 mmHg 91%
13:00 +1°C° 0 mm 6 m/s 746 mmHg 89%
14:00 +1°C° 0.1 mm 6 m/s 746 mmHg 87%
15:00 +2°C° 0.1 mm 5 m/s 746 mmHg 86%
16:00 +2°C° 0.1 mm 5 m/s 746 mmHg 84%
17:00 +2°C° 0.1 mm 5 m/s 746 mmHg 85%
18:00 +2°C° 0.1 mm 5 m/s 746 mmHg 86%
19:00 +2°C° 0.1 mm 6 m/s 746 mmHg 87%
20:00 +2°C° 0 mm 6 m/s 746 mmHg 87%
21:00 +2°C° 0 mm 5 m/s 746 mmHg 86%
22:00 +2°C° 0 mm 5 m/s 746 mmHg 85%
23:00 +1°C° 0 mm 6 m/s 746 mmHg 86%

Amanhã, 21 Janeiro, Quinta-feira

Tempo Temperatura Precipitação Vento Pressão Humidade
00:00 +1°C° 0 mm 6 m/s 746 mmHg 86%
01:00 +1°C° 0 mm 6 m/s 746 mmHg 86%
02:00 +1°C° 0 mm 6 m/s 745 mmHg 84%
03:00 +1°C° 0 mm 6 m/s 745 mmHg 82%
04:00 0°C° 0 mm 7 m/s 744 mmHg 80%
05:00 0°C° 0 mm 7 m/s 744 mmHg 79%
06:00 0°C° 0 mm 7 m/s 744 mmHg 78%
07:00 +2°C° 0 mm 7 m/s 744 mmHg 77%
08:00 +2°C° 0 mm 7 m/s 744 mmHg 74%
09:00 +1°C° 0 mm 8 m/s 743 mmHg 70%
10:00 +1°C° 0 mm 9 m/s 743 mmHg 67%
11:00 +2°C° 0 mm 9 m/s 743 mmHg 67%
12:00 +3°C° 0 mm 9 m/s 743 mmHg 67%
13:00 +5°C° 0 mm 8 m/s 743 mmHg 67%
14:00 +5°C° 0 mm 8 m/s 743 mmHg 70%
15:00 +5°C° 0 mm 7 m/s 743 mmHg 73%
16:00 +4°C° 0 mm 6 m/s 743 mmHg 77%
17:00 +4°C° 0 mm 6 m/s 743 mmHg 78%
18:00 +4°C° 0 mm 7 m/s 743 mmHg 80%
19:00 +4°C° 0 mm 7 m/s 743 mmHg 81%
20:00 +4°C° 0 mm 7 m/s 743 mmHg 82%
21:00 +4°C° 0 mm 7 m/s 743 mmHg 83%
22:00 +3°C° 0 mm 7 m/s 743 mmHg 85%
23:00 +3°C° 0 mm 7 m/s 742 mmHg 85%

Depois de amanhã, 22 Janeiro, Sexta-feira

Tempo Temperatura Precipitação Vento Pressão Humidade
00:00 +3°C° 0 mm 7 m/s 742 mmHg 85%
01:00 +3°C° 0 mm 7 m/s 742 mmHg 85%
02:00 +4°C° 0.2 mm 8 m/s 741 mmHg 86%
03:00 +4°C° 0.2 mm 8 m/s 741 mmHg 87%
04:00 +5°C° 0.2 mm 9 m/s 740 mmHg 88%
05:00 +3°C° 0.2 mm 9 m/s 739 mmHg 86%
06:00 +3°C° 0.2 mm 9 m/s 739 mmHg 84%
07:00 +3°C° 0.2 mm 9 m/s 739 mmHg 81%
08:00 +3°C° 0 mm 9 m/s 738 mmHg 79%
09:00 +3°C° 0 mm 9 m/s 738 mmHg 76%
10:00 +3°C° 0 mm 9 m/s 738 mmHg 74%
11:00 +4°C° 0.2 mm 8 m/s 738 mmHg 77%
12:00 +4°C° 0.2 mm 7 m/s 739 mmHg 81%
13:00 +5°C° 0.2 mm 5 m/s 739 mmHg 84%
14:00 +4°C° 0 mm 4 m/s 740 mmHg 84%
15:00 +4°C° 0 mm 4 m/s 740 mmHg 84%
16:00 +3°C° 0 mm 3 m/s 741 mmHg 83%
17:00 +2°C° 0 mm 3 m/s 741 mmHg 85%
18:00 +2°C° 0 mm 3 m/s 742 mmHg 86%
19:00 +1°C° 0 mm 3 m/s 742 mmHg 88%
20:00 +1°C° 0 mm 3 m/s 742 mmHg 89%
21:00 0°C° 0 mm 3 m/s 742 mmHg 89%
22:00 0°C° 0 mm 3 m/s 742 mmHg 90%
23:00 0°C° 0 mm 3 m/s 743 mmHg 90%

23 Janeiro, Sábado

Tempo Temperatura Precipitação Vento Pressão Humidade
00:00 +1°C° 0 mm 2 m/s 743 mmHg 90%
01:00 +1°C° 0 mm 2 m/s 743 mmHg 89%
02:00 +1°C° 0 mm 2 m/s 743 mmHg 89%
03:00 +2°C° 0 mm 1 m/s 743 mmHg 88%
04:00 +2°C° 0 mm 1 m/s 742 mmHg 87%
05:00 +2°C° 0 mm 1 m/s 742 mmHg 87%
06:00 +1°C° 0 mm 2 m/s 742 mmHg 86%
07:00 +1°C° 0 mm 2 m/s 742 mmHg 86%
08:00 +1°C° 0 mm 2 m/s 742 mmHg 84%
09:00 +1°C° 0 mm 3 m/s 741 mmHg 82%
10:00 +1°C° 0 mm 3 m/s 741 mmHg 80%
11:00 0°C° 0.3 mm 4 m/s 740 mmHg 82%
12:00 0°C° 0.3 mm 5 m/s 740 mmHg 83%
13:00 -1°C° 0.3 mm 6 m/s 739 mmHg 84%
14:00 -1°C° 2.1 mm 6 m/s 738 mmHg 88%
15:00 -1°C° 2.1 mm 7 m/s 738 mmHg 93%
16:00 -1°C° 2.1 mm 7 m/s 737 mmHg 97%
17:00 -1°C° 1.9 mm 7 m/s 737 mmHg 97%
18:00 -1°C° 1.9 mm 8 m/s 737 mmHg 97%
19:00 -1°C° 1.9 mm 8 m/s 736 mmHg 97%
20:00 -1°C° 1.4 mm 9 m/s 737 mmHg 97%
21:00 -2°C° 1.4 mm 10 m/s 737 mmHg 96%
22:00 -2°C° 1.4 mm 11 m/s 737 mmHg 96%
23:00 -2°C° 0.6 mm 11 m/s 738 mmHg 95%

24 Janeiro, Domingo

Tempo Temperatura Precipitação Vento Pressão Humidade
00:00 -2°C° 0.6 mm 10 m/s 738 mmHg 93%
01:00 -1°C° 0.6 mm 9 m/s 739 mmHg 92%
02:00 -1°C° 0 mm 8 m/s 739 mmHg 91%
03:00 -1°C° 0 mm 7 m/s 740 mmHg 89%
04:00 -1°C° 0 mm 6 m/s 740 mmHg 88%
05:00 0°C° 0 mm 5 m/s 741 mmHg 89%
06:00 -1°C° 0 mm 5 m/s 742 mmHg 90%
07:00 -1°C° 0 mm 5 m/s 743 mmHg 90%
08:00 -1°C° 0 mm 4 m/s 743 mmHg 89%
09:00 -1°C° 0 mm 4 m/s 744 mmHg 88%
10:00 -1°C° 0 mm 4 m/s 744 mmHg 87%
11:00 0°C° 0 mm 3 m/s 744 mmHg 86%
12:00 0°C° 0 mm 3 m/s 745 mmHg 85%
13:00 0°C° 0 mm 3 m/s 745 mmHg 84%
14:00 +1°C° 0 mm 2 m/s 745 mmHg 86%
15:00 +1°C° 0 mm 2 m/s 745 mmHg 88%
16:00 -1°C° 0 mm 2 m/s 745 mmHg 90%
17:00 +1°C° 0 mm 1 m/s 746 mmHg 91%
18:00 +1°C° 0 mm 1 m/s 746 mmHg 91%
19:00 0°C° 0 mm 1 m/s 746 mmHg 91%
20:00 0°C° 0 mm 1 m/s 746 mmHg 91%
21:00 0°C° 0 mm 1 m/s 746 mmHg 90%
22:00 0°C° 0 mm 1 m/s 746 mmHg 90%
23:00 0°C° 0 mm 1 m/s 746 mmHg 89%

25 Janeiro, Segunda-feira

Tempo Temperatura Precipitação Vento Pressão Humidade
00:00 0°C° 0 mm 1 m/s 746 mmHg 89%
01:00 0°C° 0 mm 1 m/s 746 mmHg 89%
02:00 0°C° 0 mm 1 m/s 746 mmHg 88%
03:00 0°C° 0 mm 1 m/s 746 mmHg 88%
04:00 0°C° 0 mm 1 m/s 746 mmHg 87%
05:00 0°C° 0 mm 1 m/s 746 mmHg 87%
06:00 0°C° 0 mm 1 m/s 747 mmHg 86%
07:00 0°C° 0 mm 1 m/s 747 mmHg 86%
08:00 0°C° 0 mm 1 m/s 747 mmHg 84%
09:00 +1°C° 0 mm 1 m/s 748 mmHg 81%
10:00 0°C° 0 mm 0 m/s 748 mmHg 79%
11:00 +2°C° 0 mm 1 m/s 748 mmHg 76%
12:00 +2°C° 0 mm 1 m/s 749 mmHg 74%
13:00 +3°C° 0 mm 1 m/s 749 mmHg 71%
14:00 +2°C° 0 mm 1 m/s 749 mmHg 74%
15:00 +1°C° 0 mm 1 m/s 749 mmHg 78%
16:00 -1°C° 0 mm 2 m/s 750 mmHg 81%
17:00 -1°C° 0 mm 2 m/s 750 mmHg 82%
18:00 -2°C° 0 mm 2 m/s 750 mmHg 84%
19:00 0°C° 0 mm 1 m/s 751 mmHg 85%
20:00 -2°C° 0 mm 2 m/s 751 mmHg 85%
21:00 -2°C° 0 mm 2 m/s 751 mmHg 85%
22:00 -3°C° 0 mm 2 m/s 751 mmHg 86%
23:00 -3°C° 0 mm 2 m/s 751 mmHg 86%
Mostrar mais

Necessitamos do seu Consentimento

A Meteoprog e os seus Fornecedores de Serviços podem armazenar e aceder a dados pessoais como cookies, identificadores do dispositivo ou outras tecnologias semelhantes existentes no seu dispositivo e processar estes dados para personalizar conteúdos e anúncios, assim como funcionalidades nas redes sociais e análise de tráfego.

  • Armazenar e/ou aceder a informações no seu dispositivo

    Os cookies, identificadores do dispositivo ou outras informações podem ser armazenados ou acedidos no seu dispositivo, para os fins acima indicados.

  • Anúncios e conteúdos personalizados, medição de anúncios e conteúdos, dados sobre o público-alvo e desenvolvimento de produtos

    Os anúncios e os conteúdos podem ser personalizados com base num perfil. Podem ser adicionados dados adicionais para uma maior personalização dos anúncios e dos conteúdos. A eficácia dos anúncios e dos conteúdos pode ser medida. Podem ser obtidas informações sobre o público que visualizou os anúncios e os conteúdos. Estes dados podem ser usados para desenvolver ou melhorar sistemas, softwares ou a experiência do utilizador.

Ao clicar em "Eu concordo”, permitirá o uso de cookies, identificadores do dispositivo e web beacons mencionados ou outras tecnologias semelhantes. As configurações do navegador do seu dispositivo podem ser alteradas.

Para certos fins, podem ser invocados interesses legítimos ao invés de consentimento. Pode ler mais informação sobre este assunto na nossa Política de Privacidade e Cookies.